Regional Weather Roundup
Issued by NWS

Home | Current Version | Previous Version | Text Only | Print | Product List | Glossary On
Versions: 1 2 3 4 5 6 7 8 9 10 11 12 13 14 15 16 17 18 19 20 21 22 23 24 25 26 27 28 29 30 31 32 33 34 35 36 37 38 39 40 41 42 43 44 45 46 47 48 49 50
000
ASUS43 KTOP 021859
RWRKS

WEATHER ROUNDUP FOR KANSAS
NATIONAL WEATHER SERVICE GOODLAND KS
200 PM CDT MON MAY 02 2016

NOTE:  "FAIR" INDICATES FEW OR NO CLOUDS BELOW 12,000 FEET WITH NO
SIGNIFICANT WEATHER AND/OR OBSTRUCTIONS TO VISIBILITY.

KSZ001>006-013>018-027>032-041>047-022000-
NORTHWEST KANSAS

CITY           SKY/WX    TMP DP  RH WIND       PRES   REMARKS
GOODLAND       SUNNY     59  30  33 N9G18     30.16F
HAYS           MOSUNNY   61  36  39 N10G17    30.15F
HILL CITY      SUNNY     62  34  35 NW9G20    30.15F
RUSSELL        MOSUNNY   59  35  40 VRB3      30.13F
$$

KSZ061>065-074>080-084>089-022000-
SOUTHWEST KANSAS

CITY           SKY/WX    TMP DP  RH WIND       PRES   REMARKS
DODGE CITY     MOSUNNY   57  32  38 N14       30.18F
ELKHART          N/A     55  32  41 NW12        N/A
GARDEN CITY    MOSUNNY   56  31  38 NW12      30.18F
GREAT BEND     PTSUNNY   57  36  44 NW9       30.16F
LIBERAL        SUNNY     55  36  47 NW9       30.21F
$$

KSZ066>073-081>083-090>101-022000-
SOUTHEAST KANSAS

CITY           SKY/WX    TMP DP  RH WIND       PRES   REMARKS
CHANUTE        CLOUDY    55  43  63 NW7       30.12F
COFFEYVILLE    CLOUDY    56  44  64 NW6       30.13F
HUTCHINSON     CLOUDY    60  40  47 NW9       30.15F
MEDICINE LODGE   N/A     60  38  43 N10       30.16F
NEWTON         CLOUDY    59  39  47 N9        30.16F
PARSONS        CLOUDY    58  45  62 NW12      30.12F
WICHITA INTL   PTSUNNY   61  40  45 N12G21    30.14F
WICHITA JABRA  CLOUDY    58  42  55 N14       30.14F
WICHITA MCCONL MOSUNNY   59  42  52 N9G18     30.14F
WINFIELD       CLOUDY    57  43  59 N9        30.15F
$$

KSZ007>012-019>026-033>040-048>060-102>105-022000-
NORTHEAST KANSAS

CITY           SKY/WX    TMP DP  RH WIND       PRES   REMARKS
CONCORDIA      MOSUNNY   59  37  44 NW6       30.13F
EMPORIA        CLOUDY    57  41  55 NW10      30.11F
LAWRENCE       CLOUDY    56  44  64 N6        30.11F
MANHATTAN      CLOUDY    61  41  47 VRB6      30.12F
OLATHE IND     CLOUDY    54  44  69 N6        30.11F
OLATHE EXE     CLOUDY    52  43  71 N7        30.10F
SALINA         MOSUNNY   63  40  42 N10       30.14F
TOPEKA BILLARD CLOUDY    55  44  66 NE8       30.11F
TOPEKA FORBES  CLOUDY    59  44  57 NW8       30.10F
$$



USA.gov is the U.S. government's official web portal to all federal, state and local government web resources and services.